Year,Month,Day,Hour,Minute,Value (Times are PST for windspeed in km/hr)
2015,12,04,00,00,0.70
2015,12,04,00,01,2.00
2015,12,04,00,02,3.10
2015,12,04,00,03,3.90
2015,12,04,00,04,4.20
2015,12,04,00,05,4.50
2015,12,04,00,06,6.40
2015,12,04,00,07,6.70
2015,12,04,00,08,1.50
2015,12,04,00,09,7.80
2015,12,04,00,10,6.20
2015,12,04,00,11,3.40
2015,12,04,00,12,4.00
2015,12,04,00,13,3.90
2015,12,04,00,14,2.10
2015,12,04,00,15,3.60
2015,12,04,00,16,0.90
2015,12,04,00,17,6.10
2015,12,04,00,18,5.80
2015,12,04,00,19,6.80
2015,12,04,00,20,5.00
2015,12,04,00,21,4.80
2015,12,04,00,22,7.70
2015,12,04,00,23,8.00
2015,12,04,00,24,5.30
2015,12,04,00,25,5.50
2015,12,04,00,26,4.20
2015,12,04,00,27,8.10
2015,12,04,00,28,13.20
2015,12,04,00,29,6.40
2015,12,04,00,30,7.00
2015,12,04,00,31,9.90
2015,12,04,00,32,13.60
2015,12,04,00,33,10.30
2015,12,04,00,34,8.60
2015,12,04,00,35,11.00
2015,12,04,00,36,9.70
2015,12,04,00,37,5.30
2015,12,04,00,38,8.10
2015,12,04,00,39,10.60
2015,12,04,00,40,8.40
2015,12,04,00,41,8.90
2015,12,04,00,42,12.10
2015,12,04,00,43,9.60
2015,12,04,00,44,10.50
2015,12,04,00,45,11.80
2015,12,04,00,46,11.30
2015,12,04,00,47,10.20
2015,12,04,00,48,12.20
2015,12,04,00,49,14.80
2015,12,04,00,50,9.40
2015,12,04,00,51,11.60
2015,12,04,00,52,10.00
2015,12,04,00,53,10.00
2015,12,04,00,54,6.10
2015,12,04,00,55,5.90
2015,12,04,00,56,5.80
2015,12,04,00,57,6.40
2015,12,04,00,58,8.40
2015,12,04,00,59,5.90
2015,12,04,01,00,9.60
2015,12,04,01,01,8.70
2015,12,04,01,02,6.30
2015,12,04,01,03,6.80
2015,12,04,01,04,7.10
2015,12,04,01,05,10.20
2015,12,04,01,06,9.00
2015,12,04,01,07,8.20
2015,12,04,01,08,5.70
2015,12,04,01,09,8.10
2015,12,04,01,10,4.80
2015,12,04,01,11,8.30
2015,12,04,01,12,8.70
2015,12,04,01,13,6.10
2015,12,04,01,14,4.70
2015,12,04,01,15,4.30
2015,12,04,01,16,4.10
2015,12,04,01,17,5.70
2015,12,04,01,18,3.10
2015,12,04,01,19,8.60
2015,12,04,01,20,4.40
2015,12,04,01,21,7.40
2015,12,04,01,22,4.20
2015,12,04,01,23,2.80
2015,12,04,01,24,1.60
2015,12,04,01,25,7.00
2015,12,04,01,26,0.90
2015,12,04,01,27,3.50
2015,12,04,01,28,4.40
2015,12,04,01,29,5.10
2015,12,04,01,30,3.70
2015,12,04,01,31,4.30
2015,12,04,01,32,0.70
2015,12,04,01,33,4.80
2015,12,04,01,34,5.70
2015,12,04,01,35,2.60
2015,12,04,01,36,1.90
2015,12,04,01,37,5.70
2015,12,04,01,38,4.40
2015,12,04,01,39,1.20
2015,12,04,01,40,3.80
2015,12,04,01,41,4.50
2015,12,04,01,42,5.00
2015,12,04,01,43,11.10
2015,12,04,01,44,9.70
2015,12,04,01,45,7.40
2015,12,04,01,46,7.90
2015,12,04,01,47,9.40
2015,12,04,01,48,6.10
2015,12,04,01,49,7.10
2015,12,04,01,50,8.90
2015,12,04,01,51,8.40
2015,12,04,01,52,5.10
2015,12,04,01,53,5.40
2015,12,04,01,54,5.70
2015,12,04,01,55,3.50
2015,12,04,01,56,0.00
2015,12,04,01,57,0.80
2015,12,04,01,58,3.60
2015,12,04,01,59,6.30
2015,12,04,02,00,6.40
2015,12,04,02,01,7.80
2015,12,04,02,02,9.30
2015,12,04,02,03,6.10
2015,12,04,02,04,7.30
2015,12,04,02,05,6.70
2015,12,04,02,06,6.90
2015,12,04,02,07,4.70
2015,12,04,02,08,7.80
2015,12,04,02,09,7.20
2015,12,04,02,10,9.70
2015,12,04,02,11,7.80
2015,12,04,02,12,9.90
2015,12,04,02,13,10.50
2015,12,04,02,14,8.50
2015,12,04,02,15,9.50
2015,12,04,02,16,5.90
2015,12,04,02,17,6.40
2015,12,04,02,18,4.10
2015,12,04,02,19,5.70
2015,12,04,02,20,9.10
2015,12,04,02,21,10.00
2015,12,04,02,22,7.70
2015,12,04,02,23,9.10
2015,12,04,02,24,4.70
2015,12,04,02,25,4.00
2015,12,04,02,26,6.70
2015,12,04,02,27,8.30
2015,12,04,02,28,8.80
2015,12,04,02,29,8.20
2015,12,04,02,30,7.00
2015,12,04,02,31,7.10
2015,12,04,02,32,7.80
2015,12,04,02,33,6.70
2015,12,04,02,34,3.50
2015,12,04,02,35,6.00
2015,12,04,02,36,8.30
2015,12,04,02,37,9.20
2015,12,04,02,38,7.90
2015,12,04,02,39,9.60
2015,12,04,02,40,6.70
2015,12,04,02,41,10.00
2015,12,04,02,42,6.50
2015,12,04,02,43,8.20
2015,12,04,02,44,6.60
2015,12,04,02,45,10.00
2015,12,04,02,46,6.20
2015,12,04,02,47,5.80
2015,12,04,02,48,12.60
2015,12,04,02,49,8.10
2015,12,04,02,50,11.50
2015,12,04,02,51,8.40
2015,12,04,02,52,10.00
2015,12,04,02,53,12.10
2015,12,04,02,54,5.40
2015,12,04,02,55,7.60
2015,12,04,02,56,4.40
2015,12,04,02,57,8.80
2015,12,04,02,58,9.40
2015,12,04,02,59,7.20
2015,12,04,03,00,8.20
2015,12,04,03,01,8.40
2015,12,04,03,02,4.80
2015,12,04,03,03,6.00
2015,12,04,03,04,10.50
2015,12,04,03,05,6.80
2015,12,04,03,06,10.00
2015,12,04,03,07,2.60
2015,12,04,03,08,9.10
2015,12,04,03,09,7.30
2015,12,04,03,10,8.90
2015,12,04,03,11,11.60
2015,12,04,03,12,5.70
2015,12,04,03,13,5.40
2015,12,04,03,14,7.30
2015,12,04,03,15,7.50
2015,12,04,03,16,6.90
2015,12,04,03,17,4.80
2015,12,04,03,18,8.90
2015,12,04,03,19,9.10
2015,12,04,03,20,11.30
2015,12,04,03,21,9.30
2015,12,04,03,22,11.30
2015,12,04,03,23,11.30
2015,12,04,03,24,11.60
2015,12,04,03,25,10.80
2015,12,04,03,26,8.70
2015,12,04,03,27,9.40
2015,12,04,03,28,9.60
2015,12,04,03,29,6.40
2015,12,04,03,30,9.00
2015,12,04,03,31,11.30
2015,12,04,03,32,11.70
2015,12,04,03,33,10.00
2015,12,04,03,34,11.30
2015,12,04,03,35,9.10
2015,12,04,03,36,11.70
2015,12,04,03,37,12.10
2015,12,04,03,38,9.00
2015,12,04,03,39,6.60
2015,12,04,03,40,8.00
2015,12,04,03,41,7.50
2015,12,04,03,42,8.10
2015,12,04,03,43,10.20
2015,12,04,03,44,5.80
2015,12,04,03,45,8.60
2015,12,04,03,46,3.60
2015,12,04,03,47,6.90
2015,12,04,03,48,8.50
2015,12,04,03,49,11.30
2015,12,04,03,50,10.60
2015,12,04,03,51,8.10
2015,12,04,03,52,4.80
2015,12,04,03,53,8.60
2015,12,04,03,54,14.60
2015,12,04,03,55,12.10
2015,12,04,03,56,13.40
2015,12,04,03,57,9.10
2015,12,04,03,58,7.50
2015,12,04,03,59,10.50
2015,12,04,04,00,8.60
2015,12,04,04,01,7.60
2015,12,04,04,02,3.70
2015,12,04,04,03,7.80
2015,12,04,04,04,8.30
2015,12,04,04,05,12.20
2015,12,04,04,06,11.70
2015,12,04,04,07,8.40
2015,12,04,04,08,7.80
2015,12,04,04,09,9.00
2015,12,04,04,10,4.80
2015,12,04,04,11,4.60
2015,12,04,04,12,3.10
2015,12,04,04,13,11.90
2015,12,04,04,14,8.90
2015,12,04,04,15,11.00
2015,12,04,04,16,6.00
2015,12,04,04,17,10.30
2015,12,04,04,18,8.90
2015,12,04,04,19,10.40
2015,12,04,04,20,9.30
2015,12,04,04,21,8.30
2015,12,04,04,22,8.00
2015,12,04,04,23,5.70
2015,12,04,04,24,4.60
2015,12,04,04,25,7.40
2015,12,04,04,26,3.80
2015,12,04,04,27,2.60
2015,12,04,04,28,0.50
2015,12,04,04,29,2.10
2015,12,04,04,30,0.00
2015,12,04,04,31,0.00
2015,12,04,04,32,0.10
2015,12,04,04,33,0.00
2015,12,04,04,34,0.00
2015,12,04,04,35,0.00
2015,12,04,04,36,0.80
2015,12,04,04,37,2.40
2015,12,04,04,38,3.10
2015,12,04,04,39,0.80
2015,12,04,04,40,0.80
2015,12,04,04,41,0.10
2015,12,04,04,42,0.00
2015,12,04,04,43,0.00
2015,12,04,04,44,0.00
2015,12,04,04,45,1.10
2015,12,04,04,46,7.40
2015,12,04,04,47,8.10
2015,12,04,04,48,2.10
2015,12,04,04,49,3.70
2015,12,04,04,50,1.20
2015,12,04,04,51,5.10
2015,12,04,04,52,3.60
2015,12,04,04,53,1.80
2015,12,04,04,54,3.10
2015,12,04,04,55,5.60
2015,12,04,04,56,0.30
2015,12,04,04,57,0.00
2015,12,04,04,58,0.00
2015,12,04,04,59,0.10
2015,12,04,05,00,0.10
2015,12,04,05,01,0.00
2015,12,04,05,02,0.00
2015,12,04,05,03,0.00
2015,12,04,05,04,0.00
2015,12,04,05,05,0.00
2015,12,04,05,06,0.10
2015,12,04,05,07,0.10
2015,12,04,05,08,0.00
2015,12,04,05,09,0.00
2015,12,04,05,10,0.60
2015,12,04,05,11,1.00
2015,12,04,05,12,1.10
2015,12,04,05,13,0.30
2015,12,04,05,14,1.20
2015,12,04,05,15,0.10
2015,12,04,05,16,0.20
2015,12,04,05,17,1.40
2015,12,04,05,18,1.80
2015,12,04,05,19,3.20
2015,12,04,05,20,1.40
2015,12,04,05,21,0.80
2015,12,04,05,22,2.40
2015,12,04,05,23,1.00
2015,12,04,05,24,4.10
2015,12,04,05,25,5.40
2015,12,04,05,26,5.90
2015,12,04,05,27,4.00
2015,12,04,05,28,5.20
2015,12,04,05,29,4.20
2015,12,04,05,30,3.40
2015,12,04,05,31,5.90
2015,12,04,05,32,8.60
2015,12,04,05,33,9.10
2015,12,04,05,34,8.40
2015,12,04,05,35,7.80
2015,12,04,05,36,5.10
2015,12,04,05,37,6.90
2015,12,04,05,38,2.40
2015,12,04,05,39,6.10
2015,12,04,05,40,2.20
2015,12,04,05,41,3.60
2015,12,04,05,42,5.80
2015,12,04,05,43,6.30
2015,12,04,05,44,5.90
2015,12,04,05,45,8.90
2015,12,04,05,46,9.40
2015,12,04,05,47,8.90
2015,12,04,05,48,8.40
2015,12,04,05,49,4.70
2015,12,04,05,50,10.40
2015,12,04,05,51,8.20
2015,12,04,05,52,5.10
2015,12,04,05,53,4.30
2015,12,04,05,54,5.30
2015,12,04,05,55,3.40
2015,12,04,05,56,3.60
2015,12,04,05,57,3.40
2015,12,04,05,58,4.90
2015,12,04,05,59,2.80
2015,12,04,06,00,2.60
2015,12,04,06,01,3.50
2015,12,04,06,02,3.80
2015,12,04,06,03,5.60
2015,12,04,06,04,6.80
2015,12,04,06,05,3.60
2015,12,04,06,06,6.10
2015,12,04,06,07,6.80
2015,12,04,06,08,1.70
2015,12,04,06,09,0.90
2015,12,04,06,10,2.90
2015,12,04,06,11,3.90
2015,12,04,06,12,1.80
2015,12,04,06,13,5.50
2015,12,04,06,14,3.60
2015,12,04,06,15,3.10
2015,12,04,06,16,3.70
2015,12,04,06,17,3.80
2015,12,04,06,18,0.90
2015,12,04,06,19,0.30
2015,12,04,06,20,0.00
2015,12,04,06,21,0.00
2015,12,04,06,22,0.00
2015,12,04,06,23,0.00
2015,12,04,06,24,0.00
2015,12,04,06,25,0.00
2015,12,04,06,26,0.00
2015,12,04,06,27,0.00
2015,12,04,06,28,0.00
2015,12,04,06,29,0.00
2015,12,04,06,30,0.00
2015,12,04,06,31,0.00
2015,12,04,06,32,0.00
2015,12,04,06,33,0.00
2015,12,04,06,34,0.00
2015,12,04,06,35,0.00
2015,12,04,06,36,0.00
2015,12,04,06,37,0.00
2015,12,04,06,38,0.00
2015,12,04,06,39,0.00
2015,12,04,06,40,0.00
2015,12,04,06,41,0.00
2015,12,04,06,42,0.00
2015,12,04,06,43,0.00
2015,12,04,06,44,0.00
2015,12,04,06,45,0.00
2015,12,04,06,46,0.00
2015,12,04,06,47,0.00
2015,12,04,06,48,0.00
2015,12,04,06,49,0.00
2015,12,04,06,50,1.10
2015,12,04,06,51,0.80
2015,12,04,06,52,0.10
2015,12,04,06,53,0.00
2015,12,04,06,54,0.00
2015,12,04,06,55,0.10
2015,12,04,06,56,1.50
2015,12,04,06,57,0.10
2015,12,04,06,58,0.10
2015,12,04,06,59,0.00
2015,12,04,07,00,0.00
2015,12,04,07,01,1.70
2015,12,04,07,02,0.20
2015,12,04,07,03,0.50
2015,12,04,07,04,0.20
2015,12,04,07,05,0.00
2015,12,04,07,06,0.10
2015,12,04,07,07,0.00
2015,12,04,07,08,0.00
2015,12,04,07,09,0.20
2015,12,04,07,10,0.80
2015,12,04,07,11,0.00
2015,12,04,07,12,0.50
2015,12,04,07,13,0.90
2015,12,04,07,14,0.30
2015,12,04,07,15,0.10
2015,12,04,07,16,0.00
2015,12,04,07,17,0.00
2015,12,04,07,18,0.00
2015,12,04,07,19,0.10
2015,12,04,07,20,0.00
2015,12,04,07,21,0.00
2015,12,04,07,22,0.10
2015,12,04,07,23,0.00
2015,12,04,07,24,0.00
2015,12,04,07,25,0.00
2015,12,04,07,26,0.10
2015,12,04,07,27,0.20
2015,12,04,07,28,0.20
2015,12,04,07,29,1.00
2015,12,04,07,30,0.20
2015,12,04,07,31,0.20
2015,12,04,07,32,0.10
2015,12,04,07,33,0.00
2015,12,04,07,34,1.50
2015,12,04,07,35,0.00
2015,12,04,07,36,1.30
2015,12,04,07,37,1.40
2015,12,04,07,38,0.00
2015,12,04,07,39,0.00
2015,12,04,07,40,0.10
2015,12,04,07,41,0.00
2015,12,04,07,42,0.00
2015,12,04,07,43,2.10
2015,12,04,07,44,0.30
2015,12,04,07,45,0.50
2015,12,04,07,46,0.90
2015,12,04,07,47,0.00
2015,12,04,07,48,0.00
2015,12,04,07,49,0.30
2015,12,04,07,50,0.10
2015,12,04,07,51,0.10
2015,12,04,07,52,2.60
2015,12,04,07,53,0.10
2015,12,04,07,54,0.20
2015,12,04,07,55,2.10
2015,12,04,07,56,2.10
2015,12,04,07,57,0.40
2015,12,04,07,58,1.80
2015,12,04,07,59,2.30
2015,12,04,08,00,0.00
2015,12,04,08,01,0.70
2015,12,04,08,02,2.20
2015,12,04,08,03,2.50
2015,12,04,08,04,4.80
2015,12,04,08,05,6.80
2015,12,04,08,06,7.10
2015,12,04,08,07,2.90
2015,12,04,08,08,5.30
2015,12,04,08,09,7.80
2015,12,04,08,10,8.50
2015,12,04,08,11,6.60
2015,12,04,08,12,7.80
2015,12,04,08,13,8.90
2015,12,04,08,14,5.40
2015,12,04,08,15,7.70
2015,12,04,08,16,8.90
2015,12,04,08,17,4.40
2015,12,04,08,18,7.50
2015,12,04,08,19,7.70
2015,12,04,08,20,5.90
2015,12,04,08,21,2.90
2015,12,04,08,22,3.60
2015,12,04,08,23,1.00
2015,12,04,08,24,4.00
2015,12,04,08,25,0.50
2015,12,04,08,26,2.10
2015,12,04,08,27,4.10
2015,12,04,08,28,3.10
2015,12,04,08,29,2.80
2015,12,04,08,30,3.30
2015,12,04,08,31,3.60
2015,12,04,08,32,2.90
2015,12,04,08,33,3.20
2015,12,04,08,34,1.60
2015,12,04,08,35,1.40
2015,12,04,08,36,5.70
2015,12,04,08,37,2.30
2015,12,04,08,38,0.90
2015,12,04,08,39,0.10
2015,12,04,08,40,1.80
2015,12,04,08,41,5.60
2015,12,04,08,42,4.80
2015,12,04,08,43,5.80
2015,12,04,08,44,3.40
2015,12,04,08,45,3.70
2015,12,04,08,46,2.10
2015,12,04,08,47,0.20
2015,12,04,08,48,3.80
2015,12,04,08,49,3.40
2015,12,04,08,50,3.40
2015,12,04,08,51,5.40
2015,12,04,08,52,3.40
2015,12,04,08,53,1.70
2015,12,04,08,54,1.90
2015,12,04,08,55,0.50
2015,12,04,08,56,0.20
2015,12,04,08,57,0.90
2015,12,04,08,58,1.80
2015,12,04,08,59,0.20
2015,12,04,09,00,0.00
2015,12,04,09,01,0.50
2015,12,04,09,02,1.00
2015,12,04,09,03,0.20
2015,12,04,09,04,0.50
2015,12,04,09,05,0.10
2015,12,04,09,06,0.00
2015,12,04,09,07,0.00
2015,12,04,09,08,0.00
2015,12,04,09,09,0.00
2015,12,04,09,10,0.00
2015,12,04,09,11,0.00
2015,12,04,09,12,0.10
2015,12,04,09,13,0.10
2015,12,04,09,14,0.00
2015,12,04,09,15,1.20
2015,12,04,09,16,0.30
2015,12,04,09,17,0.00
2015,12,04,09,18,0.10
2015,12,04,09,19,0.00
2015,12,04,09,20,0.70
2015,12,04,09,21,0.00
2015,12,04,09,22,0.00
2015,12,04,09,23,0.10
2015,12,04,09,24,0.00
2015,12,04,09,25,0.60
2015,12,04,09,26,0.00
2015,12,04,09,27,1.10
2015,12,04,09,28,1.20
2015,12,04,09,29,0.20
2015,12,04,09,30,3.10
2015,12,04,09,31,3.10
2015,12,04,09,32,0.70
2015,12,04,09,33,0.70
2015,12,04,09,34,0.00
2015,12,04,09,35,0.40
2015,12,04,09,36,0.50
2015,12,04,09,37,0.00
2015,12,04,09,38,0.10
2015,12,04,09,39,0.30
2015,12,04,09,40,0.80
2015,12,04,09,41,1.80
2015,12,04,09,42,3.40
2015,12,04,09,43,3.20
2015,12,04,09,44,6.70
2015,12,04,09,45,2.70
2015,12,04,09,46,5.10
2015,12,04,09,47,4.20
2015,12,04,09,48,8.70
2015,12,04,09,49,4.40
2015,12,04,09,50,7.20
2015,12,04,09,51,7.60
2015,12,04,09,52,7.90
2015,12,04,09,53,7.10
2015,12,04,09,54,0.90
2015,12,04,09,55,5.10
2015,12,04,09,56,0.80
2015,12,04,09,57,1.80
2015,12,04,09,58,0.20
2015,12,04,09,59,0.70
2015,12,04,10,00,0.50
2015,12,04,10,01,3.70
2015,12,04,10,02,2.30
2015,12,04,10,03,3.40
2015,12,04,10,04,3.90
2015,12,04,10,05,3.50
2015,12,04,10,06,4.70
2015,12,04,10,07,0.70
2015,12,04,10,08,2.80
2015,12,04,10,09,6.10
2015,12,04,10,10,6.40
2015,12,04,10,11,1.80
2015,12,04,10,12,3.00
2015,12,04,10,13,5.90
2015,12,04,10,14,3.10
2015,12,04,10,15,2.40
2015,12,04,10,16,6.70
2015,12,04,10,17,6.50
2015,12,04,10,18,3.90
2015,12,04,10,19,0.80
2015,12,04,10,20,3.00
2015,12,04,10,21,2.70
2015,12,04,10,22,4.10
2015,12,04,10,23,1.80
2015,12,04,10,24,4.80
2015,12,04,10,25,5.90
2015,12,04,10,26,4.60
2015,12,04,10,27,6.80
2015,12,04,10,28,5.70
2015,12,04,10,29,3.40
2015,12,04,10,30,9.80
2015,12,04,10,31,8.00
2015,12,04,10,32,5.10
2015,12,04,10,33,7.80
2015,12,04,10,34,6.90
2015,12,04,10,35,6.70
2015,12,04,10,36,6.20
2015,12,04,10,37,7.60
2015,12,04,10,38,6.60
2015,12,04,10,39,7.30
2015,12,04,10,40,7.30
2015,12,04,10,41,6.50
2015,12,04,10,42,4.60
2015,12,04,10,43,2.60
2015,12,04,10,44,6.20
2015,12,04,10,45,2.60
2015,12,04,10,46,1.90
2015,12,04,10,47,3.10
2015,12,04,10,48,3.80
2015,12,04,10,49,2.40
2015,12,04,10,50,2.30
2015,12,04,10,51,2.40
2015,12,04,10,52,1.20
2015,12,04,10,53,5.00
2015,12,04,10,54,3.80
2015,12,04,10,55,2.60
2015,12,04,10,56,4.70
2015,12,04,10,57,1.20
2015,12,04,10,58,4.10
2015,12,04,10,59,4.30
2015,12,04,11,00,1.20
2015,12,04,11,01,2.20
2015,12,04,11,02,0.10
2015,12,04,11,03,0.30
2015,12,04,11,04,2.50
2015,12,04,11,05,4.40
2015,12,04,11,06,5.60
2015,12,04,11,07,4.70
2015,12,04,11,08,8.50
2015,12,04,11,09,1.90
2015,12,04,11,10,2.80
2015,12,04,11,11,7.10
2015,12,04,11,12,4.00
2015,12,04,11,13,3.00
2015,12,04,11,14,7.10
2015,12,04,11,15,4.40
2015,12,04,11,16,2.40
2015,12,04,11,17,1.20
2015,12,04,11,18,2.50
2015,12,04,11,19,0.00
2015,12,04,11,20,4.90
2015,12,04,11,21,5.70
2015,12,04,11,22,2.50
2015,12,04,11,23,5.10
2015,12,04,11,24,5.70
2015,12,04,11,25,7.40
2015,12,04,11,26,3.70
2015,12,04,11,27,3.50
2015,12,04,11,28,5.60
2015,12,04,11,29,1.80
2015,12,04,11,30,6.60
2015,12,04,11,31,4.30
2015,12,04,11,32,6.70
2015,12,04,11,33,6.20
2015,12,04,11,34,2.80
2015,12,04,11,35,5.60
2015,12,04,11,36,4.40
2015,12,04,11,37,4.20
2015,12,04,11,38,3.50
2015,12,04,11,39,2.20
2015,12,04,11,40,6.00
2015,12,04,11,41,5.00
2015,12,04,11,42,5.70
2015,12,04,11,43,10.60
2015,12,04,11,44,12.40
2015,12,04,11,45,7.80
2015,12,04,11,46,6.10
2015,12,04,11,47,4.30
2015,12,04,11,48,11.00
2015,12,04,11,49,9.10
2015,12,04,11,50,8.10
2015,12,04,11,51,5.10
2015,12,04,11,52,5.10
2015,12,04,11,53,9.10
2015,12,04,11,54,16.60
2015,12,04,11,55,12.30
2015,12,04,11,56,7.10
2015,12,04,11,57,7.10
2015,12,04,11,58,8.80
2015,12,04,11,59,7.20
2015,12,04,12,00,6.60
2015,12,04,12,01,9.60
2015,12,04,12,02,9.10
2015,12,04,12,03,12.30
2015,12,04,12,04,14.30
2015,12,04,12,05,9.60
2015,12,04,12,06,16.40
2015,12,04,12,07,20.90
2015,12,04,12,08,20.90
2015,12,04,12,09,16.40
2015,12,04,12,10,9.00
2015,12,04,12,11,9.30
2015,12,04,12,12,8.30
2015,12,04,12,13,11.80
2015,12,04,12,14,12.60
2015,12,04,12,15,8.70
2015,12,04,12,16,4.10
2015,12,04,12,17,10.90
2015,12,04,12,18,7.60
2015,12,04,12,19,4.70
2015,12,04,12,20,7.80
2015,12,04,12,21,7.70
2015,12,04,12,22,5.40
2015,12,04,12,23,7.90
2015,12,04,12,24,6.90
2015,12,04,12,25,7.30
2015,12,04,12,26,7.50
2015,12,04,12,27,10.40
2015,12,04,12,28,8.10
2015,12,04,12,29,8.40
2015,12,04,12,30,6.10
2015,12,04,12,31,3.60
2015,12,04,12,32,4.90
2015,12,04,12,33,3.10
2015,12,04,12,34,3.10
2015,12,04,12,35,8.60
2015,12,04,12,36,4.70
2015,12,04,12,37,0.20
2015,12,04,12,38,5.30
2015,12,04,12,39,6.10
2015,12,04,12,40,6.40
2015,12,04,12,41,5.40
2015,12,04,12,42,4.30
2015,12,04,12,43,2.60
2015,12,04,12,44,4.00
2015,12,04,12,45,3.80
2015,12,04,12,46,6.10
2015,12,04,12,47,5.30
2015,12,04,12,48,5.40
2015,12,04,12,49,4.50
2015,12,04,12,50,8.30
2015,12,04,12,51,5.40
2015,12,04,12,52,8.10
2015,12,04,12,53,5.00
2015,12,04,12,54,8.10
2015,12,04,12,55,9.70
2015,12,04,12,56,8.30
2015,12,04,12,57,7.70
2015,12,04,12,58,6.40
2015,12,04,12,59,4.70
2015,12,04,13,00,8.40
2015,12,04,13,01,7.70
2015,12,04,13,02,5.30
2015,12,04,13,03,2.90
2015,12,04,13,04,6.80
2015,12,04,13,05,7.60
2015,12,04,13,06,5.70
2015,12,04,13,07,7.50
2015,12,04,13,08,5.90
2015,12,04,13,09,6.60
2015,12,04,13,10,8.40
2015,12,04,13,11,7.00
2015,12,04,13,12,8.00
2015,12,04,13,13,6.20
2015,12,04,13,14,5.50
2015,12,04,13,15,4.90
2015,12,04,13,16,4.70
2015,12,04,13,17,4.80
2015,12,04,13,18,7.20
2015,12,04,13,19,4.50
2015,12,04,13,20,4.30
2015,12,04,13,21,4.60
2015,12,04,13,22,8.10
2015,12,04,13,23,8.30
2015,12,04,13,24,6.70
2015,12,04,13,25,7.50
2015,12,04,13,26,5.90
2015,12,04,13,27,6.80
2015,12,04,13,28,6.20
2015,12,04,13,29,6.60
2015,12,04,13,30,5.40
2015,12,04,13,31,2.20
2015,12,04,13,32,8.30
2015,12,04,13,33,5.80
2015,12,04,13,34,4.40
2015,12,04,13,35,6.40
2015,12,04,13,36,5.80
2015,12,04,13,37,9.00
2015,12,04,13,38,4.90
2015,12,04,13,39,7.40
2015,12,04,13,40,9.60
2015,12,04,13,41,5.30
2015,12,04,13,42,9.00
2015,12,04,13,43,7.50
2015,12,04,13,44,7.30
2015,12,04,13,45,7.70
2015,12,04,13,46,7.50
2015,12,04,13,47,7.10
2015,12,04,13,48,7.80
2015,12,04,13,49,4.30
2015,12,04,13,50,6.20
2015,12,04,13,51,1.80
2015,12,04,13,52,7.70
2015,12,04,13,53,10.80
2015,12,04,13,54,7.50
2015,12,04,13,55,4.60
2015,12,04,13,56,7.90
2015,12,04,13,57,6.60
2015,12,04,13,58,7.70
2015,12,04,13,59,8.60
2015,12,04,14,00,6.80
2015,12,04,14,01,2.30
2015,12,04,14,02,4.30
2015,12,04,14,03,8.40
2015,12,04,14,04,9.80
2015,12,04,14,05,7.50
2015,12,04,14,06,6.20
2015,12,04,14,07,9.70
2015,12,04,14,08,9.70
2015,12,04,14,09,9.70
2015,12,04,14,10,4.10
2015,12,04,14,11,9.60
2015,12,04,14,12,10.90
2015,12,04,14,13,9.50
2015,12,04,14,14,9.60
2015,12,04,14,15,5.40
2015,12,04,14,16,6.90
2015,12,04,14,17,3.90
2015,12,04,14,18,3.00
2015,12,04,14,19,9.00
2015,12,04,14,20,10.70
2015,12,04,14,21,9.90
2015,12,04,14,22,9.70
2015,12,04,14,23,7.90
2015,12,04,14,24,12.20
2015,12,04,14,25,8.40
2015,12,04,14,26,8.40
2015,12,04,14,27,9.20
2015,12,04,14,28,11.90
2015,12,04,14,29,12.40
2015,12,04,14,30,11.50
2015,12,04,14,31,8.60
2015,12,04,14,32,9.90
2015,12,04,14,33,6.50
2015,12,04,14,34,4.90
2015,12,04,14,35,8.40
2015,12,04,14,36,7.20
2015,12,04,14,37,6.30
2015,12,04,14,38,11.10
2015,12,04,14,39,7.60
2015,12,04,14,40,7.60
2015,12,04,14,41,9.00
2015,12,04,14,42,10.50
2015,12,04,14,43,8.30
2015,12,04,14,44,6.80
2015,12,04,14,45,7.70
2015,12,04,14,46,9.20
2015,12,04,14,47,5.50
2015,12,04,14,48,4.50
2015,12,04,14,49,3.10
2015,12,04,14,50,6.10
2015,12,04,14,51,7.40
2015,12,04,14,52,6.50
2015,12,04,14,53,3.60
2015,12,04,14,54,8.10
2015,12,04,14,55,10.20
2015,12,04,14,56,7.80
2015,12,04,14,57,3.90
2015,12,04,14,58,3.50
2015,12,04,14,59,5.00
2015,12,04,15,00,2.10
2015,12,04,15,01,5.70
2015,12,04,15,02,4.40
2015,12,04,15,03,0.80
2015,12,04,15,04,5.50
2015,12,04,15,05,7.40
2015,12,04,15,06,6.10
2015,12,04,15,07,10.50
2015,12,04,15,08,5.20
2015,12,04,15,09,5.40
2015,12,04,15,10,5.60
2015,12,04,15,11,8.70
2015,12,04,15,12,5.00
2015,12,04,15,13,11.00
2015,12,04,15,14,5.40
2015,12,04,15,15,3.30
2015,12,04,15,16,7.20
2015,12,04,15,17,4.40
2015,12,04,15,18,3.80
2015,12,04,15,19,1.40
2015,12,04,15,20,3.60
2015,12,04,15,21,3.70
2015,12,04,15,22,2.50
2015,12,04,15,23,7.00
2015,12,04,15,24,7.40
2015,12,04,15,25,9.50
2015,12,04,15,26,8.10
2015,12,04,15,27,5.90
2015,12,04,15,28,6.00
2015,12,04,15,29,7.70
2015,12,04,15,30,9.60
2015,12,04,15,31,4.10
2015,12,04,15,32,5.10
2015,12,04,15,33,6.50
2015,12,04,15,34,2.20
2015,12,04,15,35,5.80
2015,12,04,15,36,4.10
2015,12,04,15,37,4.20
2015,12,04,15,38,7.50
2015,12,04,15,39,9.50
2015,12,04,15,40,8.60
2015,12,04,15,41,6.20
2015,12,04,15,42,6.60
2015,12,04,15,43,5.30
2015,12,04,15,44,4.80
2015,12,04,15,45,7.80
2015,12,04,15,46,6.40
2015,12,04,15,47,10.00
2015,12,04,15,48,10.60
2015,12,04,15,49,9.30
2015,12,04,15,50,10.50
2015,12,04,15,51,9.40
2015,12,04,15,52,7.80
2015,12,04,15,53,9.00
2015,12,04,15,54,6.70
2015,12,04,15,55,3.80
2015,12,04,15,56,6.70
2015,12,04,15,57,3.40
2015,12,04,15,58,5.10
2015,12,04,15,59,3.80
2015,12,04,16,00,6.70
2015,12,04,16,01,10.50
2015,12,04,16,02,7.40
2015,12,04,16,03,8.90
2015,12,04,16,04,9.30
2015,12,04,16,05,11.20
2015,12,04,16,06,7.30
2015,12,04,16,07,8.70
2015,12,04,16,08,8.90
2015,12,04,16,09,9.00
2015,12,04,16,10,4.70
2015,12,04,16,11,4.70
2015,12,04,16,12,3.30
2015,12,04,16,13,5.90
2015,12,04,16,14,6.70
2015,12,04,16,15,9.00
2015,12,04,16,16,6.20
2015,12,04,16,17,6.20
2015,12,04,16,18,3.80
2015,12,04,16,19,8.50
2015,12,04,16,20,8.30
2015,12,04,16,21,9.00
2015,12,04,16,22,7.90
2015,12,04,16,23,7.10
2015,12,04,16,24,10.40
2015,12,04,16,25,6.40
2015,12,04,16,26,2.50
2015,12,04,16,27,2.70
2015,12,04,16,28,8.10
2015,12,04,16,29,4.40
2015,12,04,16,30,2.70
2015,12,04,16,31,5.60
2015,12,04,16,32,9.50
2015,12,04,16,33,9.00
2015,12,04,16,34,5.40
2015,12,04,16,35,11.60
2015,12,04,16,36,8.40
2015,12,04,16,37,9.00
2015,12,04,16,38,7.50
2015,12,04,16,39,7.40
2015,12,04,16,40,4.80
2015,12,04,16,41,6.40
2015,12,04,16,42,8.60
2015,12,04,16,43,8.70
2015,12,04,16,44,7.40
2015,12,04,16,45,7.20
2015,12,04,16,46,4.80
2015,12,04,16,47,7.70
2015,12,04,16,48,7.40
2015,12,04,16,49,5.40
2015,12,04,16,50,7.00
2015,12,04,16,51,6.20
2015,12,04,16,52,5.90
2015,12,04,16,53,7.40
2015,12,04,16,54,4.90
2015,12,04,16,55,2.40
2015,12,04,16,56,6.10
2015,12,04,16,57,9.10
2015,12,04,16,58,5.30
2015,12,04,16,59,4.70
2015,12,04,17,00,2.50
2015,12,04,17,01,1.60
2015,12,04,17,02,2.00
2015,12,04,17,03,6.90
2015,12,04,17,04,8.20
2015,12,04,17,05,7.00
2015,12,04,17,06,11.00
2015,12,04,17,07,15.70
2015,12,04,17,08,11.60
2015,12,04,17,09,11.10
2015,12,04,17,10,11.20
2015,12,04,17,11,10.10
2015,12,04,17,12,11.10
2015,12,04,17,13,8.10
2015,12,04,17,14,6.40
2015,12,04,17,15,8.00
2015,12,04,17,16,4.40
2015,12,04,17,17,5.00
2015,12,04,17,18,8.30
2015,12,04,17,19,10.40
2015,12,04,17,20,8.70
2015,12,04,17,21,4.20
2015,12,04,17,22,3.40
2015,12,04,17,23,5.80
2015,12,04,17,24,4.50
2015,12,04,17,25,5.30
2015,12,04,17,26,5.90
2015,12,04,17,27,10.10
2015,12,04,17,28,11.60
2015,12,04,17,29,10.00
2015,12,04,17,30,6.40
2015,12,04,17,31,8.90
2015,12,04,17,32,5.40
2015,12,04,17,33,10.20
2015,12,04,17,34,8.50
2015,12,04,17,35,7.70
2015,12,04,17,36,8.60
2015,12,04,17,37,8.30
2015,12,04,17,38,9.70
2015,12,04,17,39,7.60
2015,12,04,17,40,11.10
2015,12,04,17,41,8.90
2015,12,04,17,42,4.70
2015,12,04,17,43,9.60
2015,12,04,17,44,11.80
2015,12,04,17,45,12.60
2015,12,04,17,46,8.60
2015,12,04,17,47,5.40
2015,12,04,17,48,8.10
2015,12,04,17,49,7.80
2015,12,04,17,50,5.90
2015,12,04,17,51,9.30
2015,12,04,17,52,9.10
2015,12,04,17,53,8.50
2015,12,04,17,54,8.70
2015,12,04,17,55,8.30
2015,12,04,17,56,9.90
2015,12,04,17,57,7.90
2015,12,04,17,58,9.70
2015,12,04,17,59,8.80
2015,12,04,18,00,9.00
2015,12,04,18,01,11.60